TimeEST,TemperatureF,Dew PointF,Humidity,Sea Level PressureIn,VisibilityMPH,Wind Direction,Wind SpeedMPH,Gust SpeedMPH,PrecipitationIn,Events,Conditions,WindDirDegrees,DateUTC
12:15 AM,44.8,43.7,96,29.77,5.0,East,8.1,-,N/A,Rain,Heavy Rain,100,2013-02-26 05:15:00
12:35 AM,44.4,43.0,95,29.74,2.5,East,9.2,17.3,N/A,,Overcast,90,2013-02-26 05:35:00
12:55 AM,44.1,42.8,95,29.74,4.0,East,10.4,19.6,N/A,,Overcast,100,2013-02-26 05:55:00
1:15 AM,43.9,42.8,96,29.71,4.0,East,11.5,20.7,N/A,,Overcast,100,2013-02-26 06:15:00
1:35 AM,43.7,42.8,97,29.70,2.0,East,6.9,-,N/A,,Overcast,80,2013-02-26 06:35:00
1:55 AM,43.7,42.8,97,29.69,1.2,East,9.2,17.3,N/A,,Unknown,100,2013-02-26 06:55:00
2:15 AM,43.7,42.8,97,29.69,1.8,ESE,8.1,18.4,N/A,,Overcast,110,2013-02-26 07:15:00
2:35 AM,43.7,42.6,96,29.66,7.0,East,10.4,23.0,N/A,Rain,Light Rain,100,2013-02-26 07:35:00
2:55 AM,43.9,42.8,96,29.67,7.0,ESE,6.9,-,N/A,Rain,Rain,110,2013-02-26 07:55:00
3:15 AM,44.1,42.8,95,29.65,5.0,East,9.2,-,N/A,Rain,Rain,100,2013-02-26 08:15:00
3:35 AM,43.9,42.8,96,29.64,7.0,East,9.2,16.1,N/A,Rain,Rain,90,2013-02-26 08:35:00
3:55 AM,43.7,42.4,95,29.63,7.0,East,11.5,19.6,N/A,Rain,Rain,100,2013-02-26 08:55:00
4:15 AM,43.5,42.3,95,29.63,2.0,ESE,3.5,-,N/A,,Overcast,110,2013-02-26 09:15:00
4:35 AM,43.3,42.3,96,29.63,2.0,ESE,5.8,-,N/A,,Overcast,110,2013-02-26 09:35:00
4:55 AM,43.3,42.3,96,29.62,10.0,East,5.8,-,N/A,Rain,Light Rain,100,2013-02-26 09:55:00
5:15 AM,43.7,42.3,95,29.63,4.0,Calm,Calm,-,N/A,Rain,Rain,0,2013-02-26 10:15:00
5:35 AM,43.7,42.4,95,29.62,5.0,East,8.1,16.1,N/A,Rain,Rain,90,2013-02-26 10:35:00
5:55 AM,43.7,42.8,97,29.59,10.0,East,6.9,-,N/A,,Drizzle,100,2013-02-26 10:55:00
6:15 AM,44.1,43.0,96,29.57,10.0,East,8.1,16.1,N/A,,Overcast,100,2013-02-26 11:15:00
6:35 AM,44.2,43.3,97,29.55,10.0,East,8.1,-,N/A,,Overcast,100,2013-02-26 11:35:00
6:55 AM,44.8,43.7,96,29.55,10.0,ESE,6.9,-,N/A,,Overcast,110,2013-02-26 11:55:00
7:15 AM,45.1,44.1,96,29.55,10.0,ESE,5.8,-,N/A,,Overcast,110,2013-02-26 12:15:00
7:35 AM,46.0,44.6,95,29.56,10.0,SE,6.9,-,N/A,,Overcast,130,2013-02-26 12:35:00
7:55 AM,46.0,45.0,96,29.55,10.0,East,4.6,-,N/A,,Light Drizzle,90,2013-02-26 12:55:00
8:15 AM,45.9,45.0,97,29.57,7.0,East,4.6,-,N/A,,Overcast,90,2013-02-26 13:15:00
8:35 AM,46.0,45.5,98,29.58,4.0,Calm,Calm,-,N/A,,Overcast,0,2013-02-26 13:35:00
8:55 AM,46.2,45.7,98,29.59,2.5,NE,3.5,-,N/A,,Drizzle,50,2013-02-26 13:55:00
9:15 AM,46.4,46.4,100,29.59,2.0,East,5.8,-,N/A,,Light Drizzle,90,2013-02-26 14:15:00
9:35 AM,46.4,45.7,97,29.59,2.0,ESE,5.8,-,N/A,Rain,Light Rain,110,2013-02-26 14:35:00
9:55 AM,46.6,46.2,99,29.59,2.0,East,4.6,-,N/A,,Overcast,90,2013-02-26 14:55:00
10:15 AM,46.6,46.0,98,29.59,2.5,Calm,Calm,-,N/A,,Overcast,0,2013-02-26 15:15:00
10:35 AM,46.9,46.6,99,29.59,2.5,ESE,4.6,-,N/A,,Overcast,120,2013-02-26 15:35:00
10:55 AM,47.7,47.5,99,29.60,2.5,Calm,Calm,-,N/A,,Overcast,0,2013-02-26 15:55:00
11:15 AM,48.6,48.2,99,29.61,4.0,Calm,Calm,-,N/A,,Overcast,0,2013-02-26 16:15:00
11:35 AM,50.9,50.4,98,29.60,10.0,Calm,Calm,-,N/A,,Overcast,0,2013-02-26 16:35:00
11:55 AM,54.1,52.0,92,29.60,10.0,WNW,3.5,-,N/A,,Overcast,300,2013-02-26 16:55:00
12:15 PM,59.5,53.4,80,29.59,10.0,SW,8.1,16.1,N/A,,Overcast,220,2013-02-26 17:15:00
12:35 PM,59.2,50.5,73,29.59,10.0,WSW,12.7,17.3,N/A,,Overcast,240,2013-02-26 17:35:00
12:55 PM,61.2,46.8,59,29.59,10.0,WSW,16.1,23.0,N/A,,Mostly Cloudy,240,2013-02-26 17:55:00
1:15 PM,61.2,43.9,53,29.60,10.0,WSW,17.3,27.6,N/A,,Mostly Cloudy,250,2013-02-26 18:15:00
1:35 PM,60.6,43.9,54,29.59,10.0,West,18.4,26.5,N/A,,Mostly Cloudy,260,2013-02-26 18:35:00
1:55 PM,60.3,43.2,53,29.59,10.0,SW,17.3,25.3,N/A,,Scattered Clouds,230,2013-02-26 18:55:00
2:15 PM,60.4,42.4,51,29.60,10.0,West,17.3,26.5,N/A,,Scattered Clouds,260,2013-02-26 19:15:00
2:35 PM,61.3,42.6,50,29.60,10.0,WSW,13.8,23.0,N/A,,Scattered Clouds,250,2013-02-26 19:35:00
2:55 PM,61.0,41.4,48,29.60,10.0,West,17.3,26.5,N/A,,Scattered Clouds,260,2013-02-26 19:55:00
3:15 PM,61.5,41.7,48,29.60,10.0,WSW,9.2,21.9,N/A,,Scattered Clouds,250,2013-02-26 20:15:00
3:35 PM,60.4,42.3,51,29.60,10.0,West,12.7,24.2,N/A,,Scattered Clouds,270,2013-02-26 20:35:00
3:55 PM,59.9,41.4,50,29.61,10.0,West,17.3,23.0,N/A,,Scattered Clouds,270,2013-02-26 20:55:00
4:15 PM,58.8,41.5,53,29.61,10.0,West,15.0,21.9,N/A,,Scattered Clouds,270,2013-02-26 21:15:00
4:35 PM,58.6,41.7,53,29.62,10.0,West,18.4,23.0,N/A,,Scattered Clouds,280,2013-02-26 21:35:00
4:55 PM,57.7,41.2,54,29.64,10.0,West,17.3,24.2,N/A,,Scattered Clouds,270,2013-02-26 21:55:00
5:15 PM,55.6,40.6,57,29.65,10.0,WNW,19.6,27.6,N/A,,Scattered Clouds,290,2013-02-26 22:15:00
5:35 PM,54.3,39.2,57,29.67,10.0,WNW,17.3,26.5,N/A,,Scattered Clouds,290,2013-02-26 22:35:00
5:55 PM,53.1,38.7,58,29.69,10.0,WNW,18.4,26.5,N/A,,Clear,290,2013-02-26 22:55:00
6:15 PM,51.6,37.0,58,29.70,10.0,West,19.6,24.2,N/A,,Clear,280,2013-02-26 23:15:00
6:35 PM,49.8,36.7,61,29.71,10.0,WNW,17.3,-,N/A,,Clear,290,2013-02-26 23:35:00
6:55 PM,48.2,36.3,63,29.73,10.0,WNW,12.7,20.7,N/A,,Clear,300,2013-02-26 23:55:00
7:15 PM,47.3,35.4,63,29.75,10.0,West,13.8,18.4,N/A,,Clear,280,2013-02-27 00:15:00
7:35 PM,46.6,35.2,65,29.75,10.0,WNW,9.2,-,N/A,,Clear,300,2013-02-27 00:35:00
7:55 PM,46.4,35.2,65,29.76,10.0,WNW,10.4,-,N/A,,Clear,290,2013-02-27 00:55:00
8:15 PM,46.4,35.2,65,29.76,10.0,WNW,11.5,-,N/A,,Clear,290,2013-02-27 01:15:00
8:35 PM,46.8,35.6,65,29.77,10.0,WNW,10.4,18.4,N/A,,Scattered Clouds,300,2013-02-27 01:35:00
8:55 PM,46.6,35.6,66,29.77,10.0,WNW,9.2,-,N/A,,Scattered Clouds,290,2013-02-27 01:55:00
9:15 PM,45.5,35.6,68,29.79,10.0,West,5.8,-,N/A,,Scattered Clouds,270,2013-02-27 02:15:00
9:35 PM,45.5,35.6,68,29.79,10.0,West,5.8,-,N/A,,Scattered Clouds,260,2013-02-27 02:35:00
9:55 PM,44.6,35.6,71,29.80,10.0,West,4.6,-,N/A,,Scattered Clouds,280,2013-02-27 02:55:00
10:15 PM,44.2,35.6,72,29.81,10.0,West,4.6,-,N/A,,Clear,260,2013-02-27 03:15:00
10:35 PM,43.5,36.1,75,29.82,10.0,West,8.1,-,N/A,,Clear,270,2013-02-27 03:35:00
10:55 PM,43.3,35.8,75,29.83,10.0,West,5.8,-,N/A,,Clear,270,2013-02-27 03:55:00
11:15 PM,43.7,35.6,73,29.82,10.0,West,10.4,-,N/A,,Clear,280,2013-02-27 04:15:00
11:35 PM,44.1,35.4,72,29.83,10.0,WNW,13.8,-,N/A,,Clear,290,2013-02-27 04:35:00
11:55 PM,44.4,35.2,70,29.83,10.0,West,13.8,19.6,N/A,,Clear,280,2013-02-27 04:55:00